Regional Weather Roundup
Issued by NWS New Orleans/Baton Rouge, LA

Home | Current Version | Previous Version | Text Only | Print | Product List | Glossary On
Versions: 1 2 3 4 5 6 7 8 9 10 11 12 13 14 15 16 17 18 19 20 21 22 23 24 25 26 27 28 29 30 31 32 33 34 35 36 37 38 39 40 41 42 43 44 45 46 47 48 49 50
270
ASUS44 KLIX 090413
RWRLIX
NEW ORLEANS REGIONAL WEATHER ROUNDUP
NATIONAL WEATHER SERVICE NEW ORLEANS LA
1000 PM CST THU DEC 08 2016

NOTE: "FAIR" INDICATES FEW OR NO CLOUDS BELOW 12,000 FEET WITH NO
      SIGNIFICANT WEATHER AND/OR OBSTRUCTIONS TO VISIBILITY.
      SKY/WX - SKY CONDITION AND SIGNIFICANT WEATHER.
      TMP - AIR TEMPERATURE.     DP    - DEWPOINT TEMPERATURE.
      RH  - RELATIVE HUMIDITY.   PRES  - PRESSURE.
      HI  - HEAT INDEX.          WCI   - WIND CHILL INDEX.

*  THESE STATIONS ARE NOT NWS OR FAA STATIONS AND ARE NOT UNDER
   NWS QUALITY CONTROL.

LAZ038-040-048-061>063-065>067-069-090500-
SOUTHEAST LOUISIANA

CITY           SKY/WX    TMP DP  RH WIND       PRES   REMARKS
N.O. AUDUBON   NOT AVBL
N.O. INTL ARPT MOCLDY    48  30  49 N15G24    30.46R
N.O. LAKEFRONT PTCLDY    48  32  53 NE24G30   30.46R
N.O. DOWNTOWN*   N/A     48  28  46 N10G21    30.46R
RESERVE*         N/A     48  28  45 NE15G28   30.47R
SLIDELL        PTCLDY    44  29  55 N12       30.45R
BATON ROUGE    PTCLDY    43  31  62 N9G20     30.48F
BOOTHVILLE     CLOUDY    50  38  63 NE17G30   30.38F
BELLE CHASSE   CLOUDY    48  28  46 NE12G20   30.44R
BOGALUSA*        N/A     44  31  61 N7        30.49R
GALLIANO*      CLOUDY    50  31  47 N14G22    30.41S
NEW ROADS*       N/A     41  29  62 N15       30.51R
GONZALES*        N/A     45  32  60 N7        30.47S
HAMMOND*       PTCLDY    43  30  61 N5        30.48S
HOUMA*         MOCLDY    48  33  56 N15G24    30.42F
PORT FOURCHON* CLOUDY    52  36  54 NE22G30   30.38S

$$

MSZ070-080>082-090500-
SOUTHERN MISSISSIPPI

CITY           SKY/WX    TMP DP  RH WIND       PRES   REMARKS
MCCOMB         MOCLDY    40  27  59 N8        30.50R WCI  34
GULFPORT       PTCLDY    46  25  43 N8        30.44R
BILOXI         CLOUDY    45  27  49 N10       30.44R
PASCAGOULA     CLOUDY    45  26  47 NE9       30.43F

$$

COASTAL OBSERVATIONS
LAKE AND NEARSHORE STATIONS

STATION/POSITION TIME  TEMP    WIND        PRES    WAVE
                       AIR SEA DIR/SP/G            HT/PER
                 (UTC) (F)     (DEG/KT/KT) (MB)    (FT/S)
PASCAGOULA       0348   46      20/  9/ 15 1029.7
WAVELAND YACHT   0336   47 57   30/ 14/ 18 1030.8
GRAND ISLE       0348   52 63   40/ 19/ 26 1028.6
SOUTHWEST PASS   0348           40/ 23/ 28   N/A
NEW CANAL        0348   49 59   50/ 22/ 24 1030.1
SHELL BEACH      0348   49 59   30/ 23/ 30 1030.3

OFFSHORE STATIONS

STATION/POSITION TIME  TEMP    WIND        PRES    WAVE
                       AIR SEA DIR/SP/G            HT/PER
                 (UTC) (F)     (DEG/KT/KT) (MB)    (FT/S)
64 S DAUPHIN ISL 0350   58 74   10/ 23/ 31 1028.0    7/ 7

$$





USA.gov is the U.S. government's official web portal to all federal, state and local government web resources and services.